www.pogodaiklimat.ru

Погода и климат >> Архив погоды >> Хорватия >> Плоче


ПОГОДА в Плоче

  • Прогноз погоды в Плоче
  • Монитор погоды в Плоче

АРХИВ ПОГОДЫ в Плоче

Время (UTC), дата Ветер
(напр.,м/с)
 
Видим.   Явления Облачность Т
(С)
Тd
(С)
f
(%)
Тe
(С)
Тes
(С)
Комфортность P
(гПа)
Po
(гПа)
Тmin
(С)
Tmax
(С)
R
(мм)
R24
(мм)
S
(см)
03 13.08 В 2 н/о н/о +25.0 +19.9 73 +31 +31 очень
душно
1008.9 1008.6
04 13.08 СВ 1 н/о н/о +24.0 +19.6 76 +29 +29 душно 1008.7 1008.4
05 13.08 З 1 н/о н/о +26.0 +20.4 71 +32 +32 очень
душно
1009.2 1008.9
06 13.08 В 2 20 км ясно +27.2 +19.9 64 +33 +36 очень
душно
1009.3 1008.7 +24.1
07 13.08 В 3 20 км ясно +29.7 +20.0 56 +36 +42 очень
душно
1009.4 1008.8
08 13.08 Ю 3 20 км ясно +32.1 +18.9 46 +37 +46 очень
душно
1009.6 1009.0
09 13.08 Ю 3 20 км ясно +33.2 +18.3 41 +38 +49 очень
душно
1009.6 1009.0
10 13.08 Ю 3 20 км ясно +35.2 +17.8 36 +39 +53 опасность
солнечного
удара
1009.0 1008.4
11 13.08 Ю 3 20 км ясно +36.5 +18.3 34 +40 +54 опасность
солнечного
удара
1008.6 1008.0
12 13.08 ЮЗ 4 20 км ясно +36.5 +17.7 33 +40 +50 очень
душно
1008.2 1007.6
13 13.08 З 5 20 км 1/1 1000 м
[Cu med, cong]
+26.0 +22.6 82 +34 +40 очень
душно
1007.8 1007.2
14 13.08 З 4 н/о н/о +34.4 +18.9 40 +39 +39 очень
душно
1007.4 1007.1
15 13.08 З 4 н/о н/о +34.2 +19.5 42 +40 +40 очень
душно
1007.2 1006.9
16 13.08 н/о н/о +33.3 +17.9 40 1007.1 1006.8
17 13.08 З 3 н/о н/о +31.7 +18.7 46 +37 +37 очень
душно
1007.2 1006.9
18 13.08 В 1 20 км 5/1 1000 м
[Cu med, cong Cs]
+30.2 +22.4 63 +39 +39 очень
душно
1007.3 1006.7 +37.0
19 13.08 В 2 20 км 3/0
[Cs]
+28.6 +24.7 79 +41 +41 опасность
перегрева
1007.9 1007.3
20 13.08 В 1 20 км 5/0
[Ac trans Cs]
+27.4 +24.6 85 +39 +39 очень
душно
1008.1 1007.5
21 13.08 В 2 н/о н/о +26.4 +24.5 89 +37 +37 очень
душно
1007.5 1007.2
00 14.08 СВ 1 н/о н/о +25.7 +21.4 77 +33 +33 очень
душно
1006.9 1006.6
03 14.08 СЗ 1 н/о н/о +24.2 +20.6 80 +30 +30 очень
душно
1006.8 1006.5
04 14.08 ЮВ 1 н/о н/о +24.3 +20.3 78 +30 +30 очень
душно
1006.8 1006.5
05 14.08 СЗ 2 н/о н/о +24.8 +20.4 77 +31 +31 очень
душно
1007.3 1007.0
06 14.08 С 2 20 км 9/6 1000 м
[Sc diur, vesp Ac cast Cs]
+27.7 +22.2 72 +36 +37 очень
душно
1008.6 1008.0 +24.2
07 14.08 С 6 20 км 9/5 1000 м
[Sc diur, vesp Ac cast Ci fib]
+27.6 +18.1 56 +32 +33 очень
душно
1008.6 1008.0
08 14.08 С 7 20 км в посл. час гроза 10/10 1000 м
[Cb cap]
+23.7 +20.2 81 +29 +29 душно 1009.1 1008.5
09 14.08 С 3 20 км 10/10 1000 м
[Cb cap]
+23.9 +19.6 77 +29 +29 душно 1009.5 1008.9
10 14.08 С 5 30 км 10/5 1000 м
[Sc diur, vesp Ac As]
+24.3 +19.6 75 +30 +31 очень
душно
1010.3 1009.7
11 14.08 С 3 20 км 10/10 1000 м
[Sc]
+24.9 +17.8 65 +29 +29 душно 1010.3 1009.7
12 14.08 С 3 20 км {дождь, гроза} 9/4 1000 м
[Sc diur, vesp Ac As]
+24.9 +17.8 65 +29 +32 душно 1010.1 1009.5 4
13 14.08 С 5 20 км 8/4 1000 м
[Cu Sc Ac As Ci sp]
+26.8 +17.8 58 +31 +34 душно 1009.8 1009.2
14 14.08 СВ 4 н/о н/о +28.1 +16.8 50 +32 +32 душно 1009.7 1009.4
15 14.08 СВ 4 н/о н/о +28.8 +16.1 46 +32 +32 душно 1009.4 1009.1
16 14.08 СВ 3 н/о н/о +29.0 +15.9 45 +32 +32 душно 1009.2 1008.9
17 14.08 СВ 3 н/о н/о +28.2 +14.9 44 +31 +31 душно 1009.7 1009.4
18 14.08 С 4 20 км 4/1 1000 м
[Sc diur, vesp Ac inh Ci fib]
+26.3 +14.9 49 +29 +29 жарко 1010.5 1009.9 +29.0 4
19 14.08 С 6 20 км 3/1 1000 м
[Sc diur, vesp Ac inh Ci fib]
+25.3 +14.2 50 +28 +28 жарко 1011.0 1010.4
20 14.08 С 7 20 км 8/1 1000 м
[Sc diur, vesp Ac lent Ci fib]
+24.3 +13.7 52 +27 +27 жарко 1011.3 1010.7
21 14.08 С 4 н/о н/о +23.2 +13.4 54 +26 +26 жарко 1011.6 1011.3
00 15.08 С 4 н/о н/о +22.0 +12.3 54 +24 +24 комфорт 1012.5 1012.1
03 15.08 С 3 н/о н/о +21.1 +10.6 51 +23 +23 комфорт 1012.5 1012.1
04 15.08 СВ 4 н/о н/о +21.0 +9.9 49 +23 +23 комфорт 1012.5 1012.1
05 15.08 С 3 н/о н/о +21.2 +9.5 47 +23 +23 комфорт 1013.0 1012.6
06 15.08 С 3 30 км ясно +22.5 +10.2 46 +24 +27 комфорт 1013.1 1012.5 +20.9
07 15.08 С 5 30 км ясно +24.1 +9.5 40 +25 +28 комфорт 1013.1 1012.5
08 15.08 С 3 н/о н/о +25.2 +9.9 38 +26 +26 жарко 1013.2 1012.9
09 15.08 С 6 30 км ясно +26.8 +10.0 35 +27 +33 жарко 1012.8 1012.2
10 15.08 С 4 30 км ясно +28.2 +9.5 31 +28 +39 жарко 1012.3 1011.7
11 15.08 С 4 30 км ясно +28.4 +9.1 30 +28 +40 жарко 1012.0 1011.4
12 15.08 З 6 30 км ясно +28.0 +9.5 31 +28 +34 жарко 1011.8 1011.2
13 15.08 З 6 30 км ясно +28.3 +10.2 32 +29 +34 жарко 1011.4 1010.8
14 15.08 З 5 н/о н/о +28.1 +12.5 38 +29 +29 жарко 1011.4 1011.1
15 15.08 З 6 н/о н/о +27.2 +14.0 44 +29 +29 жарко 1011.2 1010.9
16 15.08 н/о н/о +27.4 +11.5 37 1011.3 1011.0
17 15.08 н/о н/о +26.9 +14.4 46 1011.5 1011.2
18 15.08 СЗ 5 30 км ясно +26.2 +15.3 51 +29 +29 жарко 1011.8 1011.2 +28.9
19 15.08 С 3 30 км ясно +25.5 +15.2 53 +28 +28 жарко 1012.2 1011.6
20 15.08 С 3 30 км ясно +23.6 +12.3 49 +25 +25 комфорт 1012.8 1012.2
21 15.08 СВ 1 н/о н/о +22.3 +10.2 46 +24 +24 комфорт 1013.3 1012.9
00 16.08 С 2 н/о н/о +21.4 +10.0 48 +23 +23 комфорт 1013.4 1013.0
03 16.08 СЗ 2 н/о н/о +20.2 +9.5 50 +22 +22 комфорт 1013.5 1013.1
04 16.08 СЗ 1 н/о н/о +19.5 +10.0 54 +22 +22 комфорт 1013.8 1013.4
05 16.08 С 2 н/о н/о +20.1 +10.0 52 +22 +22 комфорт 1014.2 1013.8
06 16.08 С 3 30 км ясно +22.6 +10.3 46 +24 +27 комфорт 1014.0 1013.4 +19.5
07 16.08 С 5 30 км ясно +24.1 +10.4 42 +25 +29 комфорт 1014.3 1013.7
08 16.08 С 5 30 км ясно +25.6 +11.0 40 +27 +32 жарко 1014.3 1013.7
09 16.08 С 4 30 км ясно +27.4 +9.7 33 +28 +37 жарко 1014.0 1013.4
10 16.08 С 3 30 км ясно +28.3 +9.7 31 +28 +42 жарко 1013.7 1013.1
11 16.08 ЮЗ 4 30 км 1/0
[Ci sp]
+28.0 +11.1 35 +29 +40 жарко 1013.6 1013.0
12 16.08 З 5 30 км 1/1 1000 м
[Cu hum Ci]
+28.5 +9.0 29 +28 +36 жарко 1013.5 1012.9
13 16.08 З 5 30 км 1/1 1000 м
[Cu med, cong Ci]
+29.2 +8.9 28 +29 +35 жарко 1013.2 1012.6
14 16.08 З 4 н/о н/о +29.0 +9.7 30 +29 +29 жарко 1013.1 1012.8
15 16.08 З 6 н/о н/о +27.5 +13.1 41 +29 +29 жарко 1012.8 1012.5
16 16.08 З 5 н/о н/о +26.5 +16.2 53 +30 +30 душно 1012.8 1012.5
17 16.08 н/о н/о +26.0 +15.2 51 1012.8 1012.5
18 16.08 З 5 30 км ясно +25.5 +15.9 55 +29 +29 душно 1012.9 1012.3 +29.4
19 16.08 С 2 30 км ясно +25.0 +15.0 54 +28 +28 жарко 1013.9 1013.3
20 16.08 С 2 30 км ясно +23.5 +13.9 55 +26 +26 жарко 1014.4 1013.8
21 16.08 С 2 н/о н/о +23.1 +10.6 45 +25 +25 комфорт 1015.2 1014.8
00 17.08 З 2 н/о н/о +21.2 +10.1 49 +23 +23 комфорт 1015.6 1015.2
03 17.08 штиль 0 н/о н/о +20.0 +9.9 52 +21 +21 комфорт 1015.9 1015.5
04 17.08 В 1 н/о н/о +19.2 +10.5 57 +21 +21 комфорт 1016.1 1015.7
05 17.08 ЮВ 1 н/о н/о +19.6 +11.4 59 +22 +22 комфорт 1016.2 1015.8
06 17.08 Ю 1 30 км ясно +21.9 +11.1 50 +24 +27 комфорт 1016.3 1015.7 +18.1
07 17.08 С 2 30 км ясно +24.2 +11.2 44 +26 +32 жарко 1016.4 1015.8
08 17.08 ЮВ 3 30 км ясно +25.3 +10.7 40 +26 +35 жарко 1016.5 1015.9
09 17.08 Ю 3 30 км 1/0
[Ci fib]
+26.8 +11.3 38 +28 +39 жарко 1016.3 1015.7
10 17.08 Ю 3 30 км 3/0
[Ci fib]
+27.6 +11.1 36 +28 +41 жарко 1016.1 1015.5
11 17.08 ЮЗ 5 30 км 3/0
[Cs]
+28.8 +10.2 31 +29 +37 жарко 1015.5 1014.9
12 17.08 З 5 30 км 6/0
[Cs]
+29.1 +8.7 28 +29 +36 жарко 1015.3 1014.7
13 17.08 З 5 30 км 3/0
[Cs]
+29.6 +9.3 28 +29 +35 жарко 1015.0 1014.4
14 17.08 З 7 н/о н/о +28.1 +11.7 36 +29 +29 жарко 1015.2 1014.9
15 17.08 З 7 н/о н/о +27.4 +14.1 44 +30 +30 жарко 1014.9 1014.6
16 17.08 н/о н/о +26.4 +17.3 57 1014.8 1014.5
17 17.08 З 5 н/о н/о +26.0 +16.0 54 +29 +29 душно 1014.8 1014.5
18 17.08 З 5 30 км 1/0
[Ci fib]
+25.8 +13.7 47 +28 +28 жарко 1014.6 1014.0 +30.0
19 17.08 С 3 30 км ясно +25.0 +13.8 50 +27 +27 жарко 1014.9 1014.3
20 17.08 В 1 30 км ясно +24.5 +14.5 54 +27 +27 жарко 1015.4 1014.8
21 17.08 С 1 н/о н/о +21.5 +15.2 67 +25 +25 комфорт 1015.9 1015.5
00 18.08 СВ 1 н/о н/о +20.1 +14.1 68 +23 +23 комфорт 1015.8 1015.4
03 18.08 В 1 н/о н/о +19.1 +14.4 74 +21 +21 комфорт 1015.9 1015.5
04 18.08 В 1 н/о н/о +18.3 +14.7 80 +20 +20 1016.2 1015.8
05 18.08 В 1 н/о н/о +18.7 +15.4 81 +21 +21 комфорт 1016.4 1016.0
06 18.08 В 2 30 км 1/0
[Ci fib]
+21.3 +15.1 68 +24 +27 комфорт 1016.2 1015.6 +18.0
07 18.08 В 2 30 км ясно +23.6 +15.4 60 +27 +33 жарко 1016.2 1015.6
08 18.08 В 2 30 км ясно +25.8 +13.9 48 +28 +38 жарко 1016.2 1015.6
09 18.08 В 2 30 км ясно +28.0 +13.8 42 +30 +43 жарко 1016.2 1015.6
10 18.08 ЮВ 3 30 км ясно +29.4 +12.0 34 +30 +43 жарко 1015.8 1015.2
11 18.08 ЮЗ 5 30 км ясно +31.0 +11.7 31 +31 +40 жарко 1015.7 1015.1
12 18.08 З 4 30 км 1/0
[Ci fib]
+31.5 +10.8 28 +31 +41 жарко 1015.5 1014.9
13 18.08 З 4 30 км 1/0
[Ci fib]
+31.8 +9.4 25 +31 +39 жарко 1015.3 1014.7
14 18.08 З 4 н/о н/о +31.1 +10.0 27 +31 +31 жарко 1015.5 1015.2
15 18.08 З 4 н/о н/о +29.8 +13.2 36 +31 +31 жарко 1015.5 1015.2
16 18.08 З 4 н/о н/о +28.8 +14.7 42 +31 +31 жарко 1015.4 1015.1
17 18.08 З 2 н/о н/о +27.7 +16.1 49 +31 +31 душно 1015.2 1014.9
18 18.08 З 4 30 км 1/0
[Ci fib]
+26.8 +15.1 49 +30 +30 душно 1014.9 1014.3 +32.0
19 18.08 В 2 30 км ясно +25.1 +16.5 59 +29 +29 душно 1014.9 1014.3
20 18.08 штиль 0 30 км ясно +23.4 +17.5 69 +29 +29 душно 1015.1 1014.5
21 18.08 штиль 0 н/о н/о +22.1 +16.4 70 +26 +26 душно 1015.8 1015.4
00 19.08 ЮВ 1 н/о н/о +20.5 +16.4 77 +25 +25 комфорт 1016.2 1015.8
03 19.08 В 1 н/о н/о +19.0 +14.9 77 +21 +21 комфорт 1015.9 1015.5
04 19.08 В 1 н/о н/о +18.9 +15.2 79 +21 +21 комфорт 1016.2 1015.8
05 19.08 В 1 н/о н/о +19.7 +15.0 74 +23 +23 комфорт 1016.4 1016.0
06 19.08 В 2 30 км ясно +21.8 +15.5 67 +25 +28 комфорт 1016.2 1015.6 +18.5
07 19.08 В 2 30 км ясно +25.1 +14.9 53 +28 +34 жарко 1016.4 1015.8
08 19.08 В 2 30 км ясно +26.8 +16.0 52 +30 +40 душно 1016.4 1015.8
09 19.08 Ю 2 30 км ясно +28.8 +14.6 42 +31 +44 жарко 1016.2 1015.6
10 19.08 ЮЗ 3 30 км ясно +30.3 +15.3 40 +33 +46 душно 1015.9 1015.3
11 19.08 ЮЗ 4 30 км ясно +31.6 +11.4 29 +32 +43 жарко 1015.9 1015.3
12 19.08 ЮЗ 4 30 км ясно +31.8 +12.2 30 +32 +42 жарко 1015.9 1015.3
13 19.08 З 5 30 км ясно +32.1 +15.3 36 +34 +41 душно 1015.8 1015.2
14 19.08 З 4 н/о н/о +31.5 +14.7 36 +33 +33 жарко 1015.8 1015.5
15 19.08 З 4 н/о н/о +30.4 +15.7 41 +33 +33 душно 1015.8 1015.5
16 19.08 З 2 н/о н/о +28.6 +18.7 55 +34 +34 очень
душно
1015.7 1015.4
17 19.08 З 3 н/о н/о +28.1 +18.9 57 +33 +33 очень
душно
1015.7 1015.4
18 19.08 В 2 30 км ясно +27.2 +19.4 62 +33 +33 очень
душно
1015.7 1015.1 +32.4
19 19.08 В 3 30 км ясно +27.1 +19.2 62 +33 +33 очень
душно
1015.8 1015.2
20 19.08 ЮВ 2 30 км ясно +24.9 +20.7 78 +31 +31 очень
душно
1016.1 1015.5
21 19.08 СВ 1 н/о н/о +23.2 +20.0 82 +30 +30 очень
душно
1016.6 1016.2
00 20.08 В 1 н/о н/о +21.7 +19.7 88 +27 +27 душно 1016.8 1016.4

 

Местоположение метеостанции Плоче (Хорватия): широта 43.03 долгота 17.43 высота над уровнем моря 5 м.

В архиве по умолчанию представлена погода в Плоче за последнюю неделю. Архивные данные за месяц целиком и за предыдущие месяцы, начиная с января 2011 года, Вы можете получить, выбрав интересующий диапазон дат из раскрывающегося списка и нажав кнопку "Ввод!".


*Определитесь, кто Вы:
робот инопланетянин человек

Внимание! Время в таблицах - всемирное. Для получения местного времени необходимо прибавить поправку, которая равна 1 ч.

Смотрите также архив погоды в соседних городах и на ближайших метеорологических станциях:

Погода в Неуме (Босния и Герцеговина) (18 км)
Погода в Макарска (Хорватия) (43 км)
Погода в Мостаре (Босния и Герцеговина) (47 км)
Погода в Ластово (Хорватия) (52 км)
Погода в Дубровнике (Хорватия) (68 км)
Погода в Хваре (Хорватия) (81 км)
Погода в Дубровник аэропорту (Хорватия) (86 км)
Погода в Ливно (Босния и Герцеговина) (95 км)
Погода в Иван-Седле (Босния и Герцеговина) (96 км)
Погода в Сплите (Хорватия) (98 км)

Пояснения к столбцам:

Ветер - указаны скорость ветра в м/с - средняя за 10 мин, порывы в срок и между сроками (в фигурных скобках) и направление, откуда дует ветер: С - северный, СВ - северо-восточный, В - восточный, ЮВ - юго-восточный, Ю - южный, ЮЗ - юго-западный, З - западный, СЗ - северо-западный.
Видимость - горизонтальная дальность видимости в метрах или километрах. При видимости от 1 до 10 км при отсутствии осадков обычно наблюдается дымка, при ухудшении видимости до 1 км и менее - туман. В сухую погоду видимость может ухудшаться дымом, пылью или мглою.
Явления - указаны атмосферные явления, наблюдавшиеся в срок или в последний час перед сроком; фигурными скобками обозначены явления, наблюдавшиеся между сроками (за 1-3 часа до срока); квадратными скобками обозначены град или гололедные отложения с указанием их диаметра в мм.
Облачность - указаны через наклонную черту общая и нижняя облачность в баллах и высота нижней границы облаков в метрах; квадратными скобками обозначены формы облаков: Ci - перистые, Cs - перисто-слоистые, Cc - перисто-кучевые, Ac - высококучевые, As - высокослоистые, Sc - слоисто-кучевые, Ns - слоисто-дождевые, Cu - кучевые, Cb - кучево-дождевые. Подробнее классификацию облаков см. в Атласе облаков (PDF).
T - Температура воздуха - температура, измеренная на высоте 2 м над землей.
Td - Температура точки росы - температура, при понижении до которой содержащийся в воздухе водяной пар достигнет насыщения.
f - Относительная влажность воздуха - влажноcть воздуха, измеренная на высоте 2 м над землей.
Te - Эффективная температура - температура, которую ощущает одетый по сезону человек в тени. Характеристика душности погоды. При расчете учитывается влияние влажности воздуха и скорости ветра на теплоощущения человека.
Tes - Эффективная температура на солнце - температура, которую ощущает человек, с поправкой на солнечный нагрев. Характеристика знойности погоды. Зависит от высоты солнца над горизонтом, облачности и скорости ветра. Ночью, в пасмурную погоду, а также при ветре 12 м/с и более поправка равна нулю.
P - Атмосферное давление - приведенное к уровню моря атмосферное давление.
Po - Атмосферное давление - измеренное на уровне метеостанции атмосферное давление.
Tmin - Минимальная температура - минимум температуры воздуха на высоте 2 м над землей.
Tmax - Максимальная температура - максимум температуры воздуха на высоте 2 м над землей.
R - Количество осадков - Количество выпавших осадков за период времени, мм. При наведении курсора мыши на число - период времени, за который выпало указанное количество осадков.
R24 - Количество осадков - Количество выпавших осадков за 24 часа, мм.
S - Снежный покров - Высота снежного покрова, см. При наведении курсора мыши на число - состояние снежного покрова и степень покрытия местности в баллах.